PAL1851 RPLL-RPVM

Flight info

Callsign PAL1851
Flight time 0h 54m
Altitude 32000
Route IPATA2R IPATA W25 BATAY BATAY3P
Aircraft B77W/H-SDE1E2E3FGHIJ2J3J4J5M1RWXY/LB1D1

Departure

Time 2026-05-07 06:53
Airport Ninoy Aquino International Airport (RPLL)

Arrival

Time 2026-05-07 07:48
Airport Mactan Cebu International Airport (RPVM)
Time Latitude Longitude Altitude Speed Heading
2026-05-07 06:25 14.50502 121.00726 73 ft 0 kts 277°
2026-05-07 06:40 14.50501 121.00735 74 ft 2 kts 272°
2026-05-07 06:41 14.50500 121.00752 72 ft 2 kts 270°
2026-05-07 06:41 14.50501 121.00769 66 ft 2 kts 262°
2026-05-07 06:41 14.50504 121.00786 67 ft 2 kts 248°
2026-05-07 06:41 14.50512 121.00801 63 ft 2 kts 220°
2026-05-07 06:42 14.50527 121.00808 65 ft 2 kts 181°
2026-05-07 06:42 14.50539 121.00807 65 ft 1 kts 158°
2026-05-07 06:42 14.50540 121.00807 63 ft 0 kts 156°
2026-05-07 06:47 14.50539 121.00807 63 ft 0 kts 156°
2026-05-07 06:47 14.50534 121.00809 65 ft 2 kts 157°
2026-05-07 06:47 14.50500 121.00819 66 ft 7 kts 167°
2026-05-07 06:47 14.50450 121.00819 65 ft 8 kts 189°
2026-05-07 06:48 14.50397 121.00804 66 ft 8 kts 205°
2026-05-07 06:48 14.50356 121.00756 64 ft 11 kts 238°
2026-05-07 06:48 14.50306 121.00668 62 ft 18 kts 240°
2026-05-07 06:48 14.50252 121.00570 68 ft 15 kts 240°
2026-05-07 06:49 14.50198 121.00473 65 ft 16 kts 240°
2026-05-07 06:49 14.50145 121.00378 64 ft 16 kts 240°
2026-05-07 06:49 14.50091 121.00281 63 ft 16 kts 240°
2026-05-07 06:49 14.50037 121.00185 64 ft 16 kts 240°
2026-05-07 06:50 14.49983 121.00088 66 ft 16 kts 240°
2026-05-07 06:50 14.49942 121.00013 63 ft 8 kts 241°
2026-05-07 06:50 14.49909 120.99970 65 ft 8 kts 210°
2026-05-07 06:50 14.49855 120.99977 71 ft 8 kts 152°
2026-05-07 06:51 14.49811 121.00012 63 ft 8 kts 123°
2026-05-07 06:51 14.49821 121.00068 66 ft 8 kts 63°
2026-05-07 06:51 14.49849 121.00121 63 ft 9 kts 61°
2026-05-07 06:51 14.49852 121.00127 63 ft 0 kts 60°
2026-05-07 06:52 14.49919 121.00250 63 ft 48 kts 60°
2026-05-07 06:53 14.50226 121.00801 66 ft 126 kts 60°
2026-05-07 06:53 14.50765 121.01769 93 ft 181 kts 60°
2026-05-07 06:53 14.51413 121.02919 715 ft 185 kts 63°
2026-05-07 06:53 14.52030 121.04064 1668 ft 182 kts 61°
2026-05-07 06:54 14.52660 121.05208 2349 ft 189 kts 61°
2026-05-07 06:54 14.53356 121.06461 2702 ft 215 kts 61°
2026-05-07 06:54 14.54145 121.07880 3079 ft 240 kts 61°
2026-05-07 06:54 14.54984 121.09392 3851 ft 246 kts 60°
2026-05-07 06:55 14.55858 121.10955 4605 ft 254 kts 60°
2026-05-07 06:55 14.56752 121.12558 5447 ft 259 kts 61°
2026-05-07 06:55 14.57382 121.14281 6267 ft 258 kts 82°
2026-05-07 06:55 14.57563 121.16122 7093 ft 258 kts 84°
2026-05-07 06:56 14.57756 121.17959 7983 ft 257 kts 83°
2026-05-07 06:56 14.57961 121.19807 8648 ft 267 kts 83°
2026-05-07 06:56 14.58178 121.21736 9403 ft 274 kts 83°
2026-05-07 06:56 14.58401 121.23712 10127 ft 278 kts 85°
2026-05-07 06:57 14.58220 121.25716 10656 ft 293 kts 109°
2026-05-07 06:57 14.57062 121.27557 10817 ft 324 kts 136°
2026-05-07 06:57 14.55225 121.29056 11026 ft 349 kts 142°
2026-05-07 06:57 14.53199 121.30591 11325 ft 372 kts 143°
2026-05-07 06:58 14.51072 121.32183 12054 ft 381 kts 143°
2026-05-07 06:58 14.48916 121.33799 13005 ft 386 kts 143°
2026-05-07 06:58 14.46734 121.35447 13885 ft 391 kts 142°
2026-05-07 06:58 14.44526 121.37125 14687 ft 396 kts 142°
2026-05-07 06:59 14.42294 121.38829 15502 ft 400 kts 142°
2026-05-07 06:59 14.40048 121.40547 16300 ft 405 kts 142°
2026-05-07 06:59 14.37775 121.42287 17108 ft 408 kts 142°
2026-05-07 06:59 14.35486 121.44042 17923 ft 411 kts 142°
2026-05-07 07:00 14.33179 121.45810 18616 ft 416 kts 142°
2026-05-07 07:00 14.30849 121.47594 19297 ft 420 kts 142°
2026-05-07 07:00 14.28492 121.49399 19902 ft 425 kts 142°
2026-05-07 07:00 14.26100 121.51226 20541 ft 430 kts 142°
2026-05-07 07:01 14.23674 121.53076 21110 ft 437 kts 142°
2026-05-07 07:01 14.21221 121.54944 21660 ft 443 kts 142°
2026-05-07 07:01 14.19569 121.56201 22014 ft 447 kts 142°
2026-05-07 07:01 14.16193 121.58772 22729 ft 455 kts 142°
2026-05-07 07:02 14.13626 121.60726 23208 ft 461 kts 142°
2026-05-07 07:02 14.11065 121.62675 23675 ft 466 kts 142°
2026-05-07 07:02 14.09301 121.64017 24000 ft 468 kts 142°
2026-05-07 07:02 14.06673 121.66021 24506 ft 471 kts 143°
2026-05-07 07:03 14.04033 121.68031 25015 ft 473 kts 143°
2026-05-07 07:03 14.01372 121.70057 25483 ft 477 kts 143°
2026-05-07 07:03 13.98695 121.72095 25940 ft 480 kts 143°
2026-05-07 07:03 13.96033 121.74121 26382 ft 483 kts 143°
2026-05-07 07:04 13.93315 121.76190 26840 ft 486 kts 143°
2026-05-07 07:04 13.90586 121.78267 27294 ft 489 kts 143°
2026-05-07 07:04 13.87841 121.80355 27727 ft 492 kts 143°
2026-05-07 07:04 13.85076 121.82455 28158 ft 495 kts 143°
2026-05-07 07:05 13.82294 121.84558 28565 ft 497 kts 143°
2026-05-07 07:05 13.79499 121.86666 28979 ft 499 kts 144°
2026-05-07 07:05 13.76690 121.88783 29444 ft 500 kts 144°
2026-05-07 07:05 13.73890 121.90893 30010 ft 498 kts 144°
2026-05-07 07:06 13.71101 121.92994 30499 ft 496 kts 144°
2026-05-07 07:06 13.68318 121.95092 30975 ft 495 kts 144°
2026-05-07 07:06 13.65543 121.97184 31459 ft 494 kts 145°
2026-05-07 07:06 13.62771 121.99274 31933 ft 493 kts 145°
2026-05-07 07:07 13.60000 122.01363 32411 ft 493 kts 145°
2026-05-07 07:07 13.57242 122.03441 32823 ft 493 kts 145°
2026-05-07 07:07 13.51692 122.07619 32853 ft 494 kts 145°
2026-05-07 07:08 13.46189 122.11760 32849 ft 493 kts 145°
2026-05-07 07:08 13.40653 122.15924 32849 ft 493 kts 145°
2026-05-07 07:09 13.35111 122.20089 32848 ft 494 kts 145°
2026-05-07 07:09 13.29567 122.24254 32845 ft 494 kts 145°
2026-05-07 07:10 13.24011 122.28425 32842 ft 494 kts 145°
2026-05-07 07:10 13.18459 122.32591 32844 ft 495 kts 145°
2026-05-07 07:11 13.12900 122.36760 32842 ft 495 kts 145°
2026-05-07 07:11 13.07335 122.40931 32840 ft 496 kts 145°
2026-05-07 07:12 13.01765 122.45103 32842 ft 496 kts 145°
2026-05-07 07:12 12.96190 122.49277 32840 ft 496 kts 145°
2026-05-07 07:13 12.90609 122.53453 32839 ft 497 kts 145°
2026-05-07 07:13 12.85024 122.57629 32838 ft 497 kts 145°
2026-05-07 07:14 12.79440 122.61803 32839 ft 497 kts 145°
2026-05-07 07:14 12.73854 122.65976 32840 ft 497 kts 145°
2026-05-07 07:15 12.68263 122.70149 32837 ft 497 kts 145°
2026-05-07 07:15 12.62706 122.74296 32838 ft 497 kts 145°
2026-05-07 07:16 12.57112 122.78468 32839 ft 497 kts 145°
2026-05-07 07:16 12.51521 122.82635 32839 ft 497 kts 145°
2026-05-07 07:17 12.45925 122.86805 32840 ft 497 kts 145°
2026-05-07 07:17 12.40342 122.90962 32841 ft 497 kts 145°
2026-05-07 07:18 12.34750 122.95125 32834 ft 497 kts 145°
2026-05-07 07:18 12.29156 122.99283 32832 ft 497 kts 145°
2026-05-07 07:19 12.23567 123.03433 32831 ft 496 kts 145°
2026-05-07 07:19 12.17978 123.07583 32832 ft 497 kts 145°
2026-05-07 07:20 12.12422 123.11707 32831 ft 497 kts 145°
2026-05-07 07:20 12.06823 123.15861 32831 ft 497 kts 145°
2026-05-07 07:21 12.01224 123.20013 32833 ft 497 kts 145°
2026-05-07 07:21 11.95619 123.24168 32832 ft 498 kts 145°
2026-05-07 07:22 11.90025 123.28312 32663 ft 495 kts 145°
2026-05-07 07:22 11.87238 123.30375 32343 ft 496 kts 145°
2026-05-07 07:22 11.84439 123.32447 31934 ft 498 kts 145°
2026-05-07 07:23 11.81626 123.34529 31498 ft 501 kts 145°
2026-05-07 07:23 11.78799 123.36620 31189 ft 501 kts 144°
2026-05-07 07:23 11.76022 123.38674 31071 ft 497 kts 144°
2026-05-07 07:23 11.73227 123.40741 30892 ft 495 kts 144°
2026-05-07 07:24 11.70406 123.42827 30638 ft 494 kts 144°
2026-05-07 07:24 11.67655 123.44861 30412 ft 494 kts 144°
2026-05-07 07:24 11.64879 123.46912 30205 ft 492 kts 144°
2026-05-07 07:24 11.62107 123.48960 30010 ft 491 kts 144°
2026-05-07 07:25 11.56597 123.53029 29578 ft 488 kts 144°
2026-05-07 07:25 11.53849 123.55059 29357 ft 486 kts 143°
2026-05-07 07:25 11.51111 123.57079 29136 ft 485 kts 143°
2026-05-07 07:26 11.48377 123.59096 28561 ft 484 kts 143°
2026-05-07 07:26 11.45654 123.61104 27944 ft 480 kts 143°
2026-05-07 07:26 11.42964 123.63088 27337 ft 475 kts 143°
2026-05-07 07:26 11.40297 123.65054 26752 ft 470 kts 143°
2026-05-07 07:27 11.37657 123.67001 26171 ft 466 kts 143°
2026-05-07 07:27 11.35041 123.68929 25590 ft 462 kts 143°
2026-05-07 07:27 11.32450 123.70839 24999 ft 458 kts 142°
2026-05-07 07:27 11.29879 123.72734 24409 ft 455 kts 142°
2026-05-07 07:28 11.27321 123.74618 23832 ft 452 kts 142°
2026-05-07 07:28 11.24783 123.76487 23218 ft 448 kts 142°
2026-05-07 07:28 11.22264 123.78343 22587 ft 444 kts 142°
2026-05-07 07:28 11.19771 123.80178 22011 ft 439 kts 142°
2026-05-07 07:29 11.17302 123.81973 21446 ft 430 kts 145°
2026-05-07 07:29 11.14591 123.83213 20897 ft 430 kts 164°
2026-05-07 07:29 11.11625 123.83598 20378 ft 430 kts 178°
2026-05-07 07:29 11.08669 123.83212 19827 ft 428 kts 192°
2026-05-07 07:30 11.05810 123.82409 19293 ft 425 kts 194°
2026-05-07 07:30 11.03009 123.81575 18743 ft 424 kts 194°
2026-05-07 07:30 11.00179 123.80733 18206 ft 423 kts 194°
2026-05-07 07:30 10.97383 123.79920 17578 ft 410 kts 193°
2026-05-07 07:31 10.94686 123.79151 17031 ft 396 kts 193°
2026-05-07 07:31 10.92073 123.78418 16505 ft 382 kts 192°
2026-05-07 07:31 10.89549 123.77716 16026 ft 371 kts 192°
2026-05-07 07:31 10.87089 123.77034 15551 ft 363 kts 192°
2026-05-07 07:32 10.84663 123.76361 15089 ft 356 kts 192°
2026-05-07 07:32 10.82302 123.75705 14582 ft 346 kts 192°
2026-05-07 07:32 10.80011 123.75067 14046 ft 338 kts 192°
2026-05-07 07:32 10.77764 123.74443 13542 ft 332 kts 192°
2026-05-07 07:33 10.75549 123.73828 12966 ft 327 kts 192°
2026-05-07 07:33 10.73392 123.73229 12373 ft 324 kts 192°
2026-05-07 07:33 10.71222 123.72627 11770 ft 322 kts 192°
2026-05-07 07:33 10.69072 123.72030 11177 ft 319 kts 192°
2026-05-07 07:34 10.66934 123.71437 10605 ft 317 kts 192°
2026-05-07 07:34 10.64821 123.70850 10066 ft 313 kts 192°
2026-05-07 07:34 10.62728 123.70268 9499 ft 311 kts 191°
2026-05-07 07:34 10.60667 123.69696 8894 ft 309 kts 192°
2026-05-07 07:35 10.58609 123.69123 8341 ft 306 kts 192°
2026-05-07 07:35 10.56560 123.68552 7770 ft 304 kts 192°
2026-05-07 07:35 10.55190 123.68170 7391 ft 302 kts 192°
2026-05-07 07:36 10.52903 123.67533 6800 ft 298 kts 191°
2026-05-07 07:36 10.50912 123.66978 6294 ft 296 kts 192°
2026-05-07 07:36 10.48932 123.66427 5721 ft 294 kts 192°
2026-05-07 07:36 10.46970 123.65881 5201 ft 291 kts 192°
2026-05-07 07:37 10.45034 123.65340 4816 ft 284 kts 192°
2026-05-07 07:37 10.43162 123.64818 4461 ft 276 kts 192°
2026-05-07 07:37 10.41326 123.64308 4124 ft 271 kts 192°
2026-05-07 07:37 10.39495 123.63799 4079 ft 272 kts 192°
2026-05-07 07:38 10.37653 123.63287 4032 ft 275 kts 192°
2026-05-07 07:38 10.35809 123.62867 3871 ft 268 kts 178°
2026-05-07 07:38 10.34053 123.63244 3730 ft 253 kts 149°
2026-05-07 07:38 10.32692 123.64239 3753 ft 242 kts 133°
2026-05-07 07:39 10.31500 123.65436 3724 ft 240 kts 132°
2026-05-07 07:39 10.30330 123.66627 3702 ft 235 kts 132°
2026-05-07 07:39 10.29217 123.67767 3706 ft 218 kts 132°
2026-05-07 07:39 10.28165 123.68849 3706 ft 215 kts 131°
2026-05-07 07:40 10.27114 123.69927 3705 ft 215 kts 132°
2026-05-07 07:40 10.26058 123.71009 3576 ft 217 kts 132°
2026-05-07 07:40 10.24990 123.72100 3356 ft 217 kts 132°
2026-05-07 07:40 10.23978 123.73130 3121 ft 218 kts 131°
2026-05-07 07:41 10.22904 123.74224 2811 ft 218 kts 131°
2026-05-07 07:41 10.21829 123.75318 2609 ft 219 kts 131°
2026-05-07 07:41 10.20757 123.76403 2525 ft 214 kts 132°
2026-05-07 07:41 10.19722 123.77451 2494 ft 208 kts 132°
2026-05-07 07:42 10.18701 123.78487 2437 ft 210 kts 132°
2026-05-07 07:42 10.17650 123.79557 2411 ft 216 kts 131°
2026-05-07 07:42 10.16609 123.80653 2395 ft 212 kts 124°
2026-05-07 07:42 10.16140 123.81944 2386 ft 185 kts 89°
2026-05-07 07:43 10.16385 123.83172 2409 ft 174 kts 69°
2026-05-07 07:43 10.17035 123.84205 2407 ft 176 kts 47°
2026-05-07 07:43 10.17921 123.85085 2405 ft 179 kts 46°
2026-05-07 07:43 10.18788 123.85953 2408 ft 171 kts 46°
2026-05-07 07:44 10.19608 123.86773 2400 ft 160 kts 46°
2026-05-07 07:44 10.20385 123.87553 2395 ft 155 kts 46°
2026-05-07 07:44 10.21156 123.88325 2400 ft 160 kts 46°
2026-05-07 07:44 10.21954 123.89124 2398 ft 161 kts 46°
2026-05-07 07:45 10.22725 123.89894 2368 ft 145 kts 46°
2026-05-07 07:45 10.23400 123.90569 2367 ft 130 kts 46°
2026-05-07 07:45 10.24095 123.91267 2404 ft 147 kts 47°
2026-05-07 07:45 10.24848 123.92015 2087 ft 152 kts 45°
2026-05-07 07:46 10.25598 123.92744 1730 ft 149 kts 45°
2026-05-07 07:46 10.26341 123.93490 1258 ft 149 kts 47°
2026-05-07 07:46 10.27055 123.94234 943 ft 143 kts 46°
2026-05-07 07:46 10.27746 123.94945 685 ft 142 kts 45°
2026-05-07 07:47 10.28429 123.95634 460 ft 136 kts 41°
2026-05-07 07:47 10.29101 123.96292 250 ft 134 kts 43°
2026-05-07 07:47 10.29776 123.96966 57 ft 136 kts 43°
2026-05-07 07:47 10.30410 123.97600 42 ft 114 kts 45°
2026-05-07 07:48 10.30864 123.98055 39 ft 69 kts 44°
2026-05-07 07:48 10.31078 123.98257 40 ft 38 kts 34°
2026-05-07 07:48 10.31230 123.98332 44 ft 11 kts 20°
2026-05-07 07:48 10.31296 123.98351 44 ft 8 kts 10°
2026-05-07 07:49 10.31353 123.98348 44 ft 8 kts 345°
2026-05-07 07:49 10.31400 123.98310 44 ft 9 kts 316°
2026-05-07 07:49 10.31442 123.98267 44 ft 9 kts 304°
2026-05-07 07:49 10.31424 123.98210 44 ft 9 kts 228°
2026-05-07 07:50 10.31378 123.98162 44 ft 10 kts 225°
2026-05-07 07:50 10.31325 123.98109 44 ft 11 kts 224°
2026-05-07 07:50 10.31268 123.98052 44 ft 10 kts 225°
2026-05-07 07:50 10.31236 123.97994 44 ft 10 kts 279°
2026-05-07 07:51 10.31277 123.97943 44 ft 7 kts 315°
2026-05-07 07:51 10.31311 123.97904 43 ft 8 kts 296°
2026-05-07 07:51 10.31310 123.97857 43 ft 5 kts 258°
2026-05-07 07:51 10.31292 123.97822 43 ft 6 kts 258°
2026-05-07 07:52 10.31287 123.97790 43 ft 4 kts 262°
2026-05-07 07:52 10.31286 123.97786 43 ft 1 kts 263°
2026-05-07 07:52 10.31285 123.97777 43 ft 1 kts 264°
2026-05-07 07:52 10.31285 123.97773 43 ft 0 kts 264°